Location: Spring Creek
(38.2870°N, 100.2160°W)
Time: 23:10:10
(UTC+00:00)

OAO 3 Rocket - Pass Details

Date: 08 May 2021
Orbit: 629 x 682 km, 35.0° (Epoch: 21 June)

Event Time Altitude Azimuth Distance (km) Brightness Sun altitude
Exits shadow 09:58:45 32° 227° (SW) 1,129 3.8 -17.2°
Maximum altitude 09:59:49 36° 198° (SSW) 1,042 3.8 -17.0°
Drops below altitude 10° 10:04:19 10° 132° (SE) 2,096 5.9 -16.3°
Sets 10:06:51 0° 124° (SE) 3,014 6.8 -15.9°
